Year,Month,Day,Hour,Minute,Value (Times are PST for temperature in C)
2018,07,15,00,00,16.60
2018,07,15,00,01,16.60
2018,07,15,00,02,16.60
2018,07,15,00,03,16.60
2018,07,15,00,04,16.60
2018,07,15,00,05,16.60
2018,07,15,00,06,16.50
2018,07,15,00,07,16.50
2018,07,15,00,08,16.50
2018,07,15,00,09,16.50
2018,07,15,00,10,16.40
2018,07,15,00,11,16.40
2018,07,15,00,12,16.40
2018,07,15,00,13,16.40
2018,07,15,00,14,16.40
2018,07,15,00,15,16.30
2018,07,15,00,16,16.30
2018,07,15,00,17,16.30
2018,07,15,00,18,16.30
2018,07,15,00,19,16.30
2018,07,15,00,20,16.30
2018,07,15,00,21,16.30
2018,07,15,00,22,16.20
2018,07,15,00,23,16.20
2018,07,15,00,24,16.20
2018,07,15,00,25,16.20
2018,07,15,00,26,16.20
2018,07,15,00,27,16.20
2018,07,15,00,28,16.20
2018,07,15,00,29,16.20
2018,07,15,00,30,16.20
2018,07,15,00,31,16.20
2018,07,15,00,32,16.10
2018,07,15,00,33,16.10
2018,07,15,00,34,16.10
2018,07,15,00,35,16.10
2018,07,15,00,36,16.10
2018,07,15,00,37,16.10
2018,07,15,00,38,16.10
2018,07,15,00,39,16.10
2018,07,15,00,40,16.10
2018,07,15,00,41,16.00
2018,07,15,00,42,16.00
2018,07,15,00,43,16.00
2018,07,15,00,44,15.90
2018,07,15,00,45,15.90
2018,07,15,00,46,15.90
2018,07,15,00,47,15.90
2018,07,15,00,48,15.90
2018,07,15,00,49,15.90
2018,07,15,00,50,15.90
2018,07,15,00,51,15.90
2018,07,15,00,52,15.90
2018,07,15,00,53,15.80
2018,07,15,00,54,15.80
2018,07,15,00,55,15.80
2018,07,15,00,56,15.80
2018,07,15,00,57,15.80
2018,07,15,00,58,15.80
2018,07,15,00,59,15.80
2018,07,15,01,00,15.80
2018,07,15,01,01,15.80
2018,07,15,01,02,15.80
2018,07,15,01,03,15.80
2018,07,15,01,04,15.80
2018,07,15,01,05,15.80
2018,07,15,01,06,15.80
2018,07,15,01,07,15.80
2018,07,15,01,08,15.80
2018,07,15,01,09,15.80
2018,07,15,01,10,15.80
2018,07,15,01,11,15.80
2018,07,15,01,12,15.80
2018,07,15,01,13,15.80
2018,07,15,01,14,15.80
2018,07,15,01,15,15.80
2018,07,15,01,16,15.80
2018,07,15,01,17,15.80
2018,07,15,01,18,15.80
2018,07,15,01,19,15.80
2018,07,15,01,20,15.80
2018,07,15,01,21,15.80
2018,07,15,01,22,15.80
2018,07,15,01,23,15.80
2018,07,15,01,24,15.80
2018,07,15,01,25,15.80
2018,07,15,01,26,15.80
2018,07,15,01,27,15.80
2018,07,15,01,28,15.80
2018,07,15,01,29,15.70
2018,07,15,01,30,15.70
2018,07,15,01,31,15.70
2018,07,15,01,32,15.70
2018,07,15,01,33,15.70
2018,07,15,01,34,15.70
2018,07,15,01,35,15.70
2018,07,15,01,36,15.70
2018,07,15,01,37,15.70
2018,07,15,01,38,15.70
2018,07,15,01,39,15.70
2018,07,15,01,40,15.70
2018,07,15,01,41,15.70
2018,07,15,01,42,15.70
2018,07,15,01,43,15.70
2018,07,15,01,44,15.70
2018,07,15,01,45,15.70
2018,07,15,01,46,15.60
2018,07,15,01,47,15.60
2018,07,15,01,48,15.60
2018,07,15,01,49,15.60
2018,07,15,01,50,15.60
2018,07,15,01,51,15.60
2018,07,15,01,52,15.60
2018,07,15,01,53,15.60
2018,07,15,01,54,15.60
2018,07,15,01,55,15.60
2018,07,15,01,56,15.70
2018,07,15,01,57,15.70
2018,07,15,01,58,15.60
2018,07,15,01,59,15.60
2018,07,15,02,00,15.70
2018,07,15,02,01,15.60
2018,07,15,02,02,15.60
2018,07,15,02,03,15.60
2018,07,15,02,04,15.60
2018,07,15,02,05,15.60
2018,07,15,02,06,15.60
2018,07,15,02,07,15.60
2018,07,15,02,08,15.60
2018,07,15,02,09,15.60
2018,07,15,02,10,15.50
2018,07,15,02,11,15.50
2018,07,15,02,12,15.50
2018,07,15,02,13,15.50
2018,07,15,02,14,15.50
2018,07,15,02,15,15.50
2018,07,15,02,16,15.50
2018,07,15,02,17,15.50
2018,07,15,02,18,15.40
2018,07,15,02,19,15.40
2018,07,15,02,20,15.40
2018,07,15,02,21,15.40
2018,07,15,02,22,15.40
2018,07,15,02,23,15.40
2018,07,15,02,24,15.40
2018,07,15,02,25,15.40
2018,07,15,02,26,15.40
2018,07,15,02,27,15.40
2018,07,15,02,28,15.30
2018,07,15,02,29,15.30
2018,07,15,02,30,15.30
2018,07,15,02,31,15.30
2018,07,15,02,32,15.30
2018,07,15,02,33,15.30
2018,07,15,02,34,15.30
2018,07,15,02,35,15.30
2018,07,15,02,36,15.30
2018,07,15,02,37,15.30
2018,07,15,02,38,15.30
2018,07,15,02,39,15.30
2018,07,15,02,40,15.30
2018,07,15,02,41,15.30
2018,07,15,02,42,15.30
2018,07,15,02,43,15.30
2018,07,15,02,44,15.30
2018,07,15,02,45,15.20
2018,07,15,02,46,15.20
2018,07,15,02,47,15.20
2018,07,15,02,48,15.20
2018,07,15,02,49,15.20
2018,07,15,02,50,15.20
2018,07,15,02,51,15.20
2018,07,15,02,52,15.20
2018,07,15,02,53,15.10
2018,07,15,02,54,15.10
2018,07,15,02,55,15.10
2018,07,15,02,56,15.10
2018,07,15,02,57,15.10
2018,07,15,02,58,15.00
2018,07,15,02,59,15.00
2018,07,15,03,00,14.90
2018,07,15,03,01,14.90
2018,07,15,03,02,14.90
2018,07,15,03,03,14.90
2018,07,15,03,04,14.80
2018,07,15,03,05,14.80
2018,07,15,03,06,14.80
2018,07,15,03,07,14.80
2018,07,15,03,08,14.80
2018,07,15,03,09,14.80
2018,07,15,03,10,14.80
2018,07,15,03,11,14.80
2018,07,15,03,12,14.80
2018,07,15,03,13,14.80
2018,07,15,03,14,14.80
2018,07,15,03,15,14.80
2018,07,15,03,16,14.80
2018,07,15,03,17,14.80
2018,07,15,03,18,14.80
2018,07,15,03,19,14.80
2018,07,15,03,20,14.80
2018,07,15,03,21,14.80
2018,07,15,03,22,14.80
2018,07,15,03,23,14.80
2018,07,15,03,24,14.80
2018,07,15,03,25,14.80
2018,07,15,03,26,14.80
2018,07,15,03,27,14.70
2018,07,15,03,28,14.70
2018,07,15,03,29,14.70
2018,07,15,03,30,14.70
2018,07,15,03,31,14.70
2018,07,15,03,32,14.70
2018,07,15,03,33,14.70
2018,07,15,03,34,14.70
2018,07,15,03,35,14.70
2018,07,15,03,36,14.70
2018,07,15,03,37,14.60
2018,07,15,03,38,14.60
2018,07,15,03,39,14.60
2018,07,15,03,40,14.60
2018,07,15,03,41,14.60
2018,07,15,03,42,14.60
2018,07,15,03,43,14.50
2018,07,15,03,44,14.50
2018,07,15,03,45,14.50
2018,07,15,03,46,14.40
2018,07,15,03,47,14.40
2018,07,15,03,48,14.40
2018,07,15,03,49,14.40
2018,07,15,03,50,14.40
2018,07,15,03,51,14.30
2018,07,15,03,52,14.30
2018,07,15,03,53,14.30
2018,07,15,03,54,14.30
2018,07,15,03,55,14.30
2018,07,15,03,56,14.30
2018,07,15,03,57,14.30
2018,07,15,03,58,14.30
2018,07,15,03,59,14.30
2018,07,15,04,00,14.20
2018,07,15,04,01,14.20
2018,07,15,04,02,14.20
2018,07,15,04,03,14.20
2018,07,15,04,04,14.20
2018,07,15,04,05,14.20
2018,07,15,04,06,14.20
2018,07,15,04,07,14.20
2018,07,15,04,08,14.20
2018,07,15,04,09,14.20
2018,07,15,04,10,14.20
2018,07,15,04,11,14.20
2018,07,15,04,12,14.20
2018,07,15,04,13,14.20
2018,07,15,04,14,14.20
2018,07,15,04,15,14.20
2018,07,15,04,16,14.20
2018,07,15,04,17,14.20
2018,07,15,04,18,14.20
2018,07,15,04,19,14.20
2018,07,15,04,20,14.20
2018,07,15,04,21,14.20
2018,07,15,04,22,14.20
2018,07,15,04,23,14.20
2018,07,15,04,24,14.20
2018,07,15,04,25,14.20
2018,07,15,04,26,14.20
2018,07,15,04,27,14.20
2018,07,15,04,28,14.20
2018,07,15,04,29,14.20
2018,07,15,04,30,14.20
2018,07,15,04,31,14.10
2018,07,15,04,32,14.10
2018,07,15,04,33,14.10
2018,07,15,04,34,14.10
2018,07,15,04,35,14.10
2018,07,15,04,36,14.10
2018,07,15,04,37,14.10
2018,07,15,04,38,14.00
2018,07,15,04,39,14.00
2018,07,15,04,40,14.00
2018,07,15,04,41,14.00
2018,07,15,04,42,14.00
2018,07,15,04,43,14.00
2018,07,15,04,44,14.00
2018,07,15,04,45,14.00
2018,07,15,04,46,14.00
2018,07,15,04,47,13.90
2018,07,15,04,48,13.90
2018,07,15,04,49,13.90
2018,07,15,04,50,13.90
2018,07,15,04,51,13.90
2018,07,15,04,52,13.90
2018,07,15,04,53,13.90
2018,07,15,04,54,13.90
2018,07,15,04,55,13.90
2018,07,15,04,56,13.90
2018,07,15,04,57,13.90
2018,07,15,04,58,13.80
2018,07,15,04,59,13.80
2018,07,15,05,00,13.80
2018,07,15,05,01,13.80
2018,07,15,05,02,13.80
2018,07,15,05,03,13.80
2018,07,15,05,04,13.80
2018,07,15,05,05,13.80
2018,07,15,05,06,13.80
2018,07,15,05,07,13.80
2018,07,15,05,08,13.80
2018,07,15,05,09,13.80
2018,07,15,05,10,13.80
2018,07,15,05,11,13.80
2018,07,15,05,12,13.80
2018,07,15,05,13,13.80
2018,07,15,05,14,13.80
2018,07,15,05,15,13.80
2018,07,15,05,16,13.80
2018,07,15,05,17,13.80
2018,07,15,05,18,13.80
2018,07,15,05,19,13.80
2018,07,15,05,20,13.80
2018,07,15,05,21,13.70
2018,07,15,05,22,13.70
2018,07,15,05,23,13.70
2018,07,15,05,24,13.70
2018,07,15,05,25,13.60
2018,07,15,05,26,13.60
2018,07,15,05,27,13.60
2018,07,15,05,28,13.60
2018,07,15,05,29,13.60
2018,07,15,05,30,13.60
2018,07,15,05,31,13.60
2018,07,15,05,32,13.60
2018,07,15,05,33,13.60
2018,07,15,05,34,13.60
2018,07,15,05,35,13.60
2018,07,15,05,36,13.60
2018,07,15,05,37,13.60
2018,07,15,05,38,13.60
2018,07,15,05,39,13.60
2018,07,15,05,40,13.60
2018,07,15,05,41,13.60
2018,07,15,05,42,13.60
2018,07,15,05,43,13.60
2018,07,15,05,44,13.60
2018,07,15,05,45,13.60
2018,07,15,05,46,13.60
2018,07,15,05,47,13.60
2018,07,15,05,48,13.60
2018,07,15,05,49,13.60
2018,07,15,05,50,13.60
2018,07,15,05,51,13.60
2018,07,15,05,52,13.60
2018,07,15,05,53,13.60
2018,07,15,05,54,13.60
2018,07,15,05,55,13.60
2018,07,15,05,56,13.60
2018,07,15,05,57,13.60
2018,07,15,05,58,13.60
2018,07,15,05,59,13.60
2018,07,15,06,00,13.60
2018,07,15,06,01,13.70
2018,07,15,06,02,13.70
2018,07,15,06,03,13.70
2018,07,15,06,04,13.70
2018,07,15,06,05,13.70
2018,07,15,06,06,13.70
2018,07,15,06,07,13.70
2018,07,15,06,08,13.70
2018,07,15,06,09,13.80
2018,07,15,06,10,13.80
2018,07,15,06,11,13.80
2018,07,15,06,12,13.90
2018,07,15,06,13,13.90
2018,07,15,06,14,13.90
2018,07,15,06,15,13.90
2018,07,15,06,16,13.90
2018,07,15,06,17,14.00
2018,07,15,06,18,14.00
2018,07,15,06,19,14.10
2018,07,15,06,20,14.10
2018,07,15,06,21,14.10
2018,07,15,06,22,14.20
2018,07,15,06,23,14.20
2018,07,15,06,24,14.30
2018,07,15,06,25,14.30
2018,07,15,06,26,14.30
2018,07,15,06,27,14.40
2018,07,15,06,28,14.40
2018,07,15,06,29,14.50
2018,07,15,06,30,14.50
2018,07,15,06,31,14.60
2018,07,15,06,32,14.60
2018,07,15,06,33,14.60
2018,07,15,06,34,14.60
2018,07,15,06,35,14.70
2018,07,15,06,36,14.70
2018,07,15,06,37,14.70
2018,07,15,06,38,14.70
2018,07,15,06,39,14.70
2018,07,15,06,40,14.70
2018,07,15,06,41,14.70
2018,07,15,06,42,14.70
2018,07,15,06,43,14.80
2018,07,15,06,44,14.80
2018,07,15,06,45,14.80
2018,07,15,06,46,14.90
2018,07,15,06,47,14.90
2018,07,15,06,48,15.00
2018,07,15,06,49,15.00
2018,07,15,06,50,15.10
2018,07,15,06,51,15.10
2018,07,15,06,52,15.20
2018,07,15,06,53,15.20
2018,07,15,06,54,15.30
2018,07,15,06,55,15.30
2018,07,15,06,56,15.30
2018,07,15,06,57,15.30
2018,07,15,06,58,15.40
2018,07,15,06,59,15.40
2018,07,15,07,00,15.50
2018,07,15,07,01,15.50
2018,07,15,07,02,15.60
2018,07,15,07,03,15.60
2018,07,15,07,04,15.70
2018,07,15,07,05,15.70
2018,07,15,07,06,15.80
2018,07,15,07,07,15.90
2018,07,15,07,08,16.00
2018,07,15,07,09,16.10
2018,07,15,07,10,16.10
2018,07,15,07,11,16.20
2018,07,15,07,12,16.30
2018,07,15,07,13,16.40
2018,07,15,07,14,16.50
2018,07,15,07,15,16.60
2018,07,15,07,16,16.70
2018,07,15,07,17,16.80
2018,07,15,07,18,16.80
2018,07,15,07,19,16.90
2018,07,15,07,20,16.90
2018,07,15,07,21,17.00
2018,07,15,07,22,17.00
2018,07,15,07,23,17.00
2018,07,15,07,24,17.10
2018,07,15,07,25,17.10
2018,07,15,07,26,17.20
2018,07,15,07,27,17.30
2018,07,15,07,28,17.40
2018,07,15,07,29,17.50
2018,07,15,07,30,17.70
2018,07,15,07,31,17.80
2018,07,15,07,32,17.80
2018,07,15,07,33,17.90
2018,07,15,07,34,18.00
2018,07,15,07,35,18.10
2018,07,15,07,36,18.20
2018,07,15,07,37,18.30
2018,07,15,07,38,18.30
2018,07,15,07,39,18.40
2018,07,15,07,40,18.40
2018,07,15,07,41,18.50
2018,07,15,07,42,18.50
2018,07,15,07,43,18.50
2018,07,15,07,44,18.50
2018,07,15,07,45,18.50
2018,07,15,07,46,18.60
2018,07,15,07,47,18.60
2018,07,15,07,48,18.60
2018,07,15,07,49,18.60
2018,07,15,07,50,18.60
2018,07,15,07,51,18.70
2018,07,15,07,52,18.80
2018,07,15,07,53,18.80
2018,07,15,07,54,18.90
2018,07,15,07,55,19.00
2018,07,15,07,56,19.00
2018,07,15,07,57,19.10
2018,07,15,07,58,19.20
2018,07,15,07,59,19.30
2018,07,15,08,00,19.30
2018,07,15,08,01,19.40
2018,07,15,08,02,19.50
2018,07,15,08,03,19.60
2018,07,15,08,04,19.70
2018,07,15,08,05,19.80
2018,07,15,08,06,19.90
2018,07,15,08,07,19.90
2018,07,15,08,08,20.00
2018,07,15,08,09,20.10
2018,07,15,08,10,20.10
2018,07,15,08,11,20.20
2018,07,15,08,12,20.20
2018,07,15,08,13,20.30
2018,07,15,08,14,20.40
2018,07,15,08,15,20.50
2018,07,15,08,16,20.50
2018,07,15,08,17,20.70
2018,07,15,08,18,20.80
2018,07,15,08,19,20.90
2018,07,15,08,20,21.00
2018,07,15,08,21,21.10
2018,07,15,08,22,21.20
2018,07,15,08,23,21.30
2018,07,15,08,24,21.40
2018,07,15,08,25,21.60
2018,07,15,08,26,21.70
2018,07,15,08,27,21.70
2018,07,15,08,28,21.80
2018,07,15,08,29,21.90
2018,07,15,08,30,21.90
2018,07,15,08,31,22.00
2018,07,15,08,32,22.10
2018,07,15,08,33,22.10
2018,07,15,08,34,22.10
2018,07,15,08,35,22.20
2018,07,15,08,36,22.20
2018,07,15,08,37,22.20
2018,07,15,08,38,22.30
2018,07,15,08,39,22.30
2018,07,15,08,40,22.30
2018,07,15,08,41,22.40
2018,07,15,08,42,22.40
2018,07,15,08,43,22.50
2018,07,15,08,44,22.50
2018,07,15,08,45,22.60
2018,07,15,08,46,22.70
2018,07,15,08,47,22.80
2018,07,15,08,48,22.80
2018,07,15,08,49,22.90
2018,07,15,08,50,22.90
2018,07,15,08,51,23.00
2018,07,15,08,52,23.00
2018,07,15,08,53,23.10
2018,07,15,08,54,23.20
2018,07,15,08,55,23.20
2018,07,15,08,56,23.30
2018,07,15,08,57,23.20
2018,07,15,08,58,23.10
2018,07,15,08,59,22.80
2018,07,15,09,00,22.60
2018,07,15,09,01,22.30
2018,07,15,09,02,22.10
2018,07,15,09,03,21.90
2018,07,15,09,04,21.70
2018,07,15,09,05,21.60
2018,07,15,09,06,21.50
2018,07,15,09,07,21.40
2018,07,15,09,08,21.30
2018,07,15,09,09,21.20
2018,07,15,09,10,21.10
2018,07,15,09,11,21.00
2018,07,15,09,12,20.90
2018,07,15,09,13,20.90
2018,07,15,09,14,20.90
2018,07,15,09,15,20.80
2018,07,15,09,16,20.80
2018,07,15,09,17,20.80
2018,07,15,09,18,20.80
2018,07,15,09,19,20.80
2018,07,15,09,20,20.90
2018,07,15,09,21,21.00
2018,07,15,09,22,21.10
2018,07,15,09,23,21.20
2018,07,15,09,24,21.30
2018,07,15,09,25,21.40
2018,07,15,09,26,21.50
2018,07,15,09,27,21.60
2018,07,15,09,28,21.70
2018,07,15,09,29,21.70
2018,07,15,09,30,21.80
2018,07,15,09,31,21.90
2018,07,15,09,32,22.00
2018,07,15,09,33,22.00
2018,07,15,09,34,22.00
2018,07,15,09,35,22.00
2018,07,15,09,36,22.00
2018,07,15,09,37,21.90
2018,07,15,09,38,21.80
2018,07,15,09,39,21.70
2018,07,15,09,40,21.70
2018,07,15,09,41,21.70
2018,07,15,09,42,21.60
2018,07,15,09,43,21.60
2018,07,15,09,44,21.50
2018,07,15,09,45,21.40
2018,07,15,09,46,21.30
2018,07,15,09,47,21.10
2018,07,15,09,48,21.00
2018,07,15,09,49,21.00
2018,07,15,09,50,20.90
2018,07,15,09,51,20.80
2018,07,15,09,52,20.80
2018,07,15,09,53,20.80
2018,07,15,09,54,20.80
2018,07,15,09,55,20.80
2018,07,15,09,56,20.90
2018,07,15,09,57,20.90
2018,07,15,09,58,21.00
2018,07,15,09,59,21.00
2018,07,15,10,00,21.10
2018,07,15,10,01,21.10
2018,07,15,10,02,21.20
2018,07,15,10,03,21.30
2018,07,15,10,04,21.30
2018,07,15,10,05,21.40
2018,07,15,10,06,21.50
2018,07,15,10,07,21.50
2018,07,15,10,08,21.60
2018,07,15,10,09,21.60
2018,07,15,10,10,21.60
2018,07,15,10,11,21.60
2018,07,15,10,12,21.70
2018,07,15,10,13,21.70
2018,07,15,10,14,21.80
2018,07,15,10,15,21.80
2018,07,15,10,16,21.90
2018,07,15,10,17,21.90
2018,07,15,10,18,21.90
2018,07,15,10,19,22.00
2018,07,15,10,20,22.10
2018,07,15,10,21,22.10
2018,07,15,10,22,22.00
2018,07,15,10,23,22.00
2018,07,15,10,24,21.90
2018,07,15,10,25,21.90
2018,07,15,10,26,21.90
2018,07,15,10,27,22.00
2018,07,15,10,28,22.00
2018,07,15,10,29,21.90
2018,07,15,10,30,21.90
2018,07,15,10,31,21.90
2018,07,15,10,32,21.90
2018,07,15,10,33,22.00
2018,07,15,10,34,22.00
2018,07,15,10,35,22.10
2018,07,15,10,36,22.20
2018,07,15,10,37,22.30
2018,07,15,10,38,22.40
2018,07,15,10,39,22.50
2018,07,15,10,40,22.50
2018,07,15,10,41,22.60
2018,07,15,10,42,22.70
2018,07,15,10,43,22.70
2018,07,15,10,44,22.80
2018,07,15,10,45,22.80
2018,07,15,10,46,22.80
2018,07,15,10,47,22.80
2018,07,15,10,48,22.90
2018,07,15,10,49,22.90
2018,07,15,10,50,22.90
2018,07,15,10,51,23.00
2018,07,15,10,52,23.00
2018,07,15,10,53,23.10
2018,07,15,10,54,23.00
2018,07,15,10,55,22.90
2018,07,15,10,56,22.90
2018,07,15,10,57,22.90
2018,07,15,10,58,22.80
2018,07,15,10,59,22.80
2018,07,15,11,00,22.80
2018,07,15,11,01,22.60
2018,07,15,11,02,22.50
2018,07,15,11,03,22.30
2018,07,15,11,04,22.30
2018,07,15,11,05,22.20
2018,07,15,11,06,22.10
2018,07,15,11,07,22.00
2018,07,15,11,08,21.90
2018,07,15,11,09,21.90
2018,07,15,11,10,21.90
2018,07,15,11,11,21.90
2018,07,15,11,12,21.90
2018,07,15,11,13,22.00
2018,07,15,11,14,22.00
2018,07,15,11,15,22.00
2018,07,15,11,16,22.10
2018,07,15,11,17,22.10
2018,07,15,11,18,22.10
2018,07,15,11,19,22.10
2018,07,15,11,20,22.00
2018,07,15,11,21,22.00
2018,07,15,11,22,22.10
2018,07,15,11,23,22.10
2018,07,15,11,24,22.20
2018,07,15,11,25,22.20
2018,07,15,11,26,22.20
2018,07,15,11,27,22.20
2018,07,15,11,28,22.20
2018,07,15,11,29,22.20
2018,07,15,11,30,22.20
2018,07,15,11,31,22.10
2018,07,15,11,32,22.10
2018,07,15,11,33,22.00
2018,07,15,11,34,22.00
2018,07,15,11,35,22.00
2018,07,15,11,36,22.10
2018,07,15,11,37,22.20
2018,07,15,11,38,22.20
2018,07,15,11,39,22.30
2018,07,15,11,40,22.30
2018,07,15,11,41,22.30
2018,07,15,11,42,22.40
2018,07,15,11,43,22.40
2018,07,15,11,44,22.50
2018,07,15,11,45,22.60
2018,07,15,11,46,22.70
2018,07,15,11,47,22.70
2018,07,15,11,48,22.70
2018,07,15,11,49,22.70
2018,07,15,11,50,22.80
2018,07,15,11,51,22.90
2018,07,15,11,52,23.00
2018,07,15,11,53,23.10
2018,07,15,11,54,23.20
2018,07,15,11,55,23.30
2018,07,15,11,56,23.40
2018,07,15,11,57,23.40
2018,07,15,11,58,23.30
2018,07,15,11,59,23.40
2018,07,15,12,00,23.40
2018,07,15,12,01,23.50
2018,07,15,12,02,23.50
2018,07,15,12,03,23.60
2018,07,15,12,04,23.50
2018,07,15,12,05,23.50
2018,07,15,12,06,23.50
2018,07,15,12,07,23.40
2018,07,15,12,08,23.30
2018,07,15,12,09,23.30
2018,07,15,12,10,23.30
2018,07,15,12,11,23.30
2018,07,15,12,12,23.30
2018,07,15,12,13,23.30
2018,07,15,12,14,23.30
2018,07,15,12,15,23.10
2018,07,15,12,16,23.00
2018,07,15,12,17,22.90
2018,07,15,12,18,22.90
2018,07,15,12,19,22.90
2018,07,15,12,20,22.90
2018,07,15,12,21,22.90
2018,07,15,12,22,23.00
2018,07,15,12,23,23.10
2018,07,15,12,24,23.10
2018,07,15,12,25,23.20
2018,07,15,12,26,23.20
2018,07,15,12,27,23.20
2018,07,15,12,28,23.20
2018,07,15,12,29,23.20
2018,07,15,12,30,23.10
2018,07,15,12,31,23.10
2018,07,15,12,32,23.10
2018,07,15,12,33,23.10
2018,07,15,12,34,23.00
2018,07,15,12,35,23.00
2018,07,15,12,36,23.00
2018,07,15,12,37,23.10
2018,07,15,12,38,23.10
2018,07,15,12,39,23.10
2018,07,15,12,40,23.10
2018,07,15,12,41,23.10
2018,07,15,12,42,23.10
2018,07,15,12,43,23.10
2018,07,15,12,44,23.10
2018,07,15,12,45,23.20
2018,07,15,12,46,23.30
2018,07,15,12,47,23.40
2018,07,15,12,48,23.40
2018,07,15,12,49,23.50
2018,07,15,12,50,23.50
2018,07,15,12,51,23.60
2018,07,15,12,52,23.60
2018,07,15,12,53,23.60
2018,07,15,12,54,23.70
2018,07,15,12,55,23.70
2018,07,15,12,56,23.80
2018,07,15,12,57,23.80
2018,07,15,12,58,23.80
2018,07,15,12,59,23.80
2018,07,15,13,00,23.80
2018,07,15,13,01,23.80
2018,07,15,13,02,23.80
2018,07,15,13,03,23.80
2018,07,15,13,04,23.90
2018,07,15,13,05,23.90
2018,07,15,13,06,23.90
2018,07,15,13,07,23.90
2018,07,15,13,08,23.90
2018,07,15,13,09,23.90
2018,07,15,13,10,23.90
2018,07,15,13,11,23.90
2018,07,15,13,12,24.00
2018,07,15,13,13,24.00
2018,07,15,13,14,24.10
2018,07,15,13,15,24.10
2018,07,15,13,16,24.20
2018,07,15,13,17,24.20
2018,07,15,13,18,24.20
2018,07,15,13,19,24.20
2018,07,15,13,20,24.20
2018,07,15,13,21,24.10
2018,07,15,13,22,24.10
2018,07,15,13,23,24.20
2018,07,15,13,24,24.20
2018,07,15,13,25,24.20
2018,07,15,13,26,24.20
2018,07,15,13,27,24.30
2018,07,15,13,28,24.40
2018,07,15,13,29,24.40
2018,07,15,13,30,24.50
2018,07,15,13,31,24.70
2018,07,15,13,32,24.80
2018,07,15,13,33,24.80
2018,07,15,13,34,24.90
2018,07,15,13,35,24.90
2018,07,15,13,36,24.90
2018,07,15,13,37,24.90
2018,07,15,13,38,25.00
2018,07,15,13,39,25.00
2018,07,15,13,40,25.10
2018,07,15,13,41,25.20
2018,07,15,13,42,25.20
2018,07,15,13,43,25.20
2018,07,15,13,44,25.10
2018,07,15,13,45,25.10
2018,07,15,13,46,25.20
2018,07,15,13,47,25.10
2018,07,15,13,48,25.00
2018,07,15,13,49,24.90
2018,07,15,13,50,24.90
2018,07,15,13,51,24.90
2018,07,15,13,52,24.90
2018,07,15,13,53,25.00
2018,07,15,13,54,25.10
2018,07,15,13,55,25.20
2018,07,15,13,56,25.40
2018,07,15,13,57,25.60
2018,07,15,13,58,25.70
2018,07,15,13,59,25.80
2018,07,15,14,00,25.80
2018,07,15,14,01,25.90
2018,07,15,14,02,25.90
2018,07,15,14,03,25.90
2018,07,15,14,04,26.00
2018,07,15,14,05,26.00
2018,07,15,14,06,26.00
2018,07,15,14,07,26.00
2018,07,15,14,08,26.10
2018,07,15,14,09,26.10
2018,07,15,14,10,26.10
2018,07,15,14,11,26.10
2018,07,15,14,12,26.10
2018,07,15,14,13,26.10
2018,07,15,14,14,26.20
2018,07,15,14,15,26.10
2018,07,15,14,16,26.10
2018,07,15,14,17,26.00
2018,07,15,14,18,25.90
2018,07,15,14,19,25.90
2018,07,15,14,20,25.90
2018,07,15,14,21,26.00
2018,07,15,14,22,26.10
2018,07,15,14,23,26.10
2018,07,15,14,24,26.20
2018,07,15,14,25,26.30
2018,07,15,14,26,26.30
2018,07,15,14,27,26.40
2018,07,15,14,28,26.50
2018,07,15,14,29,26.50
2018,07,15,14,30,26.60
2018,07,15,14,31,26.60
2018,07,15,14,32,26.60
2018,07,15,14,33,26.50
2018,07,15,14,34,26.40
2018,07,15,14,35,26.40
2018,07,15,14,36,26.50
2018,07,15,14,37,26.50
2018,07,15,14,38,26.60
2018,07,15,14,39,26.60
2018,07,15,14,40,26.50
2018,07,15,14,41,26.50
2018,07,15,14,42,26.40
2018,07,15,14,43,26.30
2018,07,15,14,44,26.30
2018,07,15,14,45,26.30
2018,07,15,14,46,26.30
2018,07,15,14,47,26.30
2018,07,15,14,48,26.30
2018,07,15,14,49,26.30
2018,07,15,14,50,26.30
2018,07,15,14,51,26.30
2018,07,15,14,52,26.30
2018,07,15,14,53,26.30
2018,07,15,14,54,26.40
2018,07,15,14,55,26.40
2018,07,15,14,56,26.40
2018,07,15,14,57,26.30
2018,07,15,14,58,26.20
2018,07,15,14,59,26.20
2018,07,15,15,00,26.20
2018,07,15,15,01,26.30
2018,07,15,15,02,26.30
2018,07,15,15,03,26.30
2018,07,15,15,04,26.30
2018,07,15,15,05,26.40
2018,07,15,15,06,26.50
2018,07,15,15,07,26.50
2018,07,15,15,08,26.40
2018,07,15,15,09,26.40
2018,07,15,15,10,26.30
2018,07,15,15,11,26.30
2018,07,15,15,12,26.20
2018,07,15,15,13,26.20
2018,07,15,15,14,26.00
2018,07,15,15,15,26.00
2018,07,15,15,16,25.90
2018,07,15,15,17,25.90
2018,07,15,15,18,25.90
2018,07,15,15,19,25.80
2018,07,15,15,20,25.80
2018,07,15,15,21,25.80
2018,07,15,15,22,25.90
2018,07,15,15,23,25.90
2018,07,15,15,24,25.90
2018,07,15,15,25,26.00
2018,07,15,15,26,26.00
2018,07,15,15,27,26.00
2018,07,15,15,28,26.10
2018,07,15,15,29,26.10
2018,07,15,15,30,26.10
2018,07,15,15,31,26.00
2018,07,15,15,32,26.00
2018,07,15,15,33,26.10
2018,07,15,15,34,26.10
2018,07,15,15,35,26.20
2018,07,15,15,36,26.20
2018,07,15,15,37,26.20
2018,07,15,15,38,26.30
2018,07,15,15,39,26.30
2018,07,15,15,40,26.40
2018,07,15,15,41,26.40
2018,07,15,15,42,26.40
2018,07,15,15,43,26.30
2018,07,15,15,44,26.20
2018,07,15,15,45,26.20
2018,07,15,15,46,26.10
2018,07,15,15,47,26.10
2018,07,15,15,48,26.10
2018,07,15,15,49,26.10
2018,07,15,15,50,26.10
2018,07,15,15,51,26.10
2018,07,15,15,52,26.10
2018,07,15,15,53,26.00
2018,07,15,15,54,26.00
2018,07,15,15,55,26.00
2018,07,15,15,56,26.00
2018,07,15,15,57,26.00
2018,07,15,15,58,26.00
2018,07,15,15,59,26.00
2018,07,15,16,00,26.00
2018,07,15,16,01,26.00
2018,07,15,16,02,26.10
2018,07,15,16,03,26.10
2018,07,15,16,04,26.10
2018,07,15,16,05,26.20
2018,07,15,16,06,26.20
2018,07,15,16,07,26.30
2018,07,15,16,08,26.30
2018,07,15,16,09,26.30
2018,07,15,16,10,26.30
2018,07,15,16,11,26.20
2018,07,15,16,12,26.20
2018,07,15,16,13,26.10
2018,07,15,16,14,26.10
2018,07,15,16,15,26.10
2018,07,15,16,16,26.10
2018,07,15,16,17,26.20
2018,07,15,16,18,26.30
2018,07,15,16,19,26.50
2018,07,15,16,20,26.60
2018,07,15,16,21,26.70
2018,07,15,16,22,26.80
2018,07,15,16,23,26.80
2018,07,15,16,24,26.90
2018,07,15,16,25,26.90
2018,07,15,16,26,26.90
2018,07,15,16,27,26.90
2018,07,15,16,28,26.80
2018,07,15,16,29,26.80
2018,07,15,16,30,26.80
2018,07,15,16,31,26.70
2018,07,15,16,32,26.70
2018,07,15,16,33,26.70
2018,07,15,16,34,26.70
2018,07,15,16,35,26.60
2018,07,15,16,36,26.60
2018,07,15,16,37,26.60
2018,07,15,16,38,26.60
2018,07,15,16,39,26.60
2018,07,15,16,40,26.70
2018,07,15,16,41,26.70
2018,07,15,16,42,26.80
2018,07,15,16,43,26.90
2018,07,15,16,44,26.90
2018,07,15,16,45,26.90
2018,07,15,16,46,27.00
2018,07,15,16,47,27.00
2018,07,15,16,48,26.90
2018,07,15,16,49,27.00
2018,07,15,16,50,27.00
2018,07,15,16,51,27.10
2018,07,15,16,52,27.10
2018,07,15,16,53,27.20
2018,07,15,16,54,27.20
2018,07,15,16,55,27.20
2018,07,15,16,56,27.20
2018,07,15,16,57,27.20
2018,07,15,16,58,27.20
2018,07,15,16,59,27.20
2018,07,15,17,00,27.30
2018,07,15,17,01,27.20
2018,07,15,17,02,27.20
2018,07,15,17,03,27.20
2018,07,15,17,04,27.10
2018,07,15,17,05,27.00
2018,07,15,17,06,26.90
2018,07,15,17,07,26.90
2018,07,15,17,08,26.90
2018,07,15,17,09,26.90
2018,07,15,17,10,26.90
2018,07,15,17,11,26.90
2018,07,15,17,12,26.90
2018,07,15,17,13,26.80
2018,07,15,17,14,26.80
2018,07,15,17,15,26.80
2018,07,15,17,16,26.80
2018,07,15,17,17,26.80
2018,07,15,17,18,26.80
2018,07,15,17,19,26.80